JE9BHE-13 Weather Reports


time (UTC)temp
C
wind
direction
speed
KPH
gust
KPH
rain 1hr
cm
rain 24hr
cm
rain mn
cm
humidity
%
barometer
mb
20260509013607 15 102 3.2 9.7 0.00 0.79 0.64 68 1020.5
20260509013308 15 120 4.8 9.7 0.00 0.79 0.64 66 1020.2
20260509013007 15 130 6.4 9.7 0.00 0.79 0.64 70 1020.2
20260509012706 15 146 6.4 11.3 0.00 0.79 0.64 72 1020.6
20260509012406 15 147 4.8 11.3 0.00 0.79 0.64 71 1020.5
20260509012107 15 151 6.4 12.9 0.00 0.79 0.64 74 1020.5
20260509011506 14 160 6.4 12.9 0.00 0.79 0.64 76 1020.6
20260509011207 13 157 8.0 12.9 0.00 0.79 0.64 78 1020.5
20260509010908 13 158 6.4 12.9 0.00 0.79 0.64 79 1020.6
20260509010606 14 142 6.4 12.9 0.00 0.79 0.64 78 1020.3
20260509010306 15 124 4.8 6.4 0.00 0.79 0.64 74 1020.5
20260509010007 15 7 3.2 6.4 0.00 0.79 0.64 71 1020.3
20260509005708 16 333 1.6 6.4 0.00 0.79 0.64 69 1020.3
20260509005107 16 2 1.6 6.4 0.00 0.79 0.64 68 1020.1
20260509004806 15 48 1.6 6.4 0.00 0.79 0.64 67 1020.2
20260509004506 15 73 1.6 6.4 0.00 0.79 0.64 70 1020.1
20260509004207 15 71 1.6 6.4 0.00 0.79 0.64 71 1020.3
20260509003607 15 83 3.2 6.4 0.00 0.79 0.64 71 1020.3
20260509003007 15 57 1.6 6.4 0.00 0.79 0.64 69 1020.3
20260509002706 15 83 0.0 6.4 0.00 0.79 0.64 69 1020.2
20260509001807 15 105 1.6 6.4 0.00 0.79 0.64 69 1020.3
20260509001507 15 90 3.2 6.4 0.00 0.79 0.64 70 1020.2
20260509001206 14 37 0.0 6.4 0.00 0.79 0.64 72 1020.1
20260509000906 13 82 1.6 6.4 0.00 0.79 0.64 73 1020.2
20260509000607 13 84 1.6 6.4 0.00 0.79 0.64 72 1020.2
20260509000006 13 82 3.2 6.4 0.00 0.79 0.64 74 1020.1
20260508235706 13 84 3.2 6.4 0.00 0.79 0.64 74 1019.9
20260508235407 13 90 3.2 9.7 0.00 0.79 0.64 75 1020.1
20260508235107 13 93 3.2 9.7 0.00 0.79 0.64 76 1020.1
20260508234807 13 94 3.2 9.7 0.00 0.79 0.64 76 1020.2
20260508234507 13 90 6.4 9.7 0.00 0.79 0.64 75 1020.0
20260508234206 13 84 3.2 6.4 0.00 0.79 0.64 74 1020.1
20260508233907 13 72 6.4 6.4 0.00 0.79 0.64 73 1019.9
20260508233607 13 74 4.8 11.3 0.00 0.79 0.64 74 1020.0
20260508233007 13 92 4.8 11.3 0.00 0.79 0.64 72 1019.9
20260508232706 13 88 3.2 9.7 0.00 0.79 0.64 74 1020.0
20260508232407 13 91 3.2 9.7 0.00 0.79 0.64 75 1020.1
20260508232106 13 74 4.8 6.4 0.00 0.79 0.64 74 1020.0
20260508231807 13 70 4.8 9.7 0.00 0.79 0.64 76 1020.1
20260508231507 13 69 3.2 9.7 0.00 0.79 0.64 76 1020.0
20260508231207 13 73 3.2 9.7 0.00 0.79 0.64 77 1019.9
20260508230606 12 88 3.2 6.4 0.00 0.79 0.64 80 1020.1
20260508230007 13 85 1.6 6.4 0.00 0.79 0.64 79 1019.9
20260508225706 12 77 3.2 6.4 0.00 0.79 0.64 80 1020.1
20260508225407 12 76 3.2 6.4 0.00 0.79 0.64 83 1020.0
20260508225106 12 70 1.6 6.4 0.00 0.79 0.64 82 1020.0
20260508224507 12 67 3.2 6.4 0.00 0.79 0.64 83 1019.9
20260508224207 12 64 3.2 6.4 0.00 0.79 0.64 83 1019.9
20260508223906 12 66 1.6 6.4 0.00 0.79 0.64 85 1020.1
20260508223606 11 68 1.6 9.7 0.00 0.79 0.64 86 1020.0
20260508223306 11 79 1.6 9.7 0.00 0.79 0.64 86 1020.0
20260508223007 11 83 3.2 9.7 0.00 0.79 0.64 87 1019.9
20260508222707 11 82 3.2 9.7 0.00 0.79 0.64 88 1020.0
20260508222106 11 84 6.4 6.4 0.00 0.79 0.64 90 1020.1
20260508221807 11 87 3.2 6.4 0.00 0.79 0.64 91 1020.0
20260508221506 11 88 3.2 3.2 0.00 0.79 0.64 91 1020.1
20260508221207 11 84 3.2 3.2 0.00 0.79 0.64 91 1020.0
20260508220907 11 84 0.0 3.2 0.00 0.79 0.64 92 1020.0
20260508220606 11 86 1.6 3.2 0.00 0.79 0.64 92 1020.0
20260508220306 11 86 3.2 3.2 0.00 0.79 0.64 92 1019.7
20260508220008 11 87 3.2 3.2 0.00 0.79 0.64 92 1019.8
20260508215706 11 87 3.2 3.2 0.00 0.79 0.64 92 1019.8
20260508215406 11 88 3.2 3.2 0.00 0.79 0.64 91 1019.7
20260508215106 11 86 0.0 3.2 0.00 0.79 0.64 91 1019.9
20260508214206 11 94 0.0 3.2 0.00 0.79 0.64 89 1019.9
20260508213606 10 112 0.0 3.2 0.00 0.79 0.64 88 1019.8
20260508213306 11 118 1.6 3.2 0.03 0.79 0.64 89 1019.8
20260508213006 11 118 1.6 3.2 0.03 0.79 0.64 89 1019.9
20260508212707 11 116 1.6 3.2 0.03 0.79 0.64 89 1019.9
20260508212408 10 97 3.2 3.2 0.03 0.79 0.64 89 1020.0
20260508212106 10 98 0.0 3.2 0.03 0.79 0.64 89 1019.7
20260508211806 10 107 1.6 6.4 0.05 0.79 0.64 89 1019.7
20260508211507 11 111 1.6 6.4 0.05 0.79 0.64 90 1019.7
20260508211206 11 118 3.2 6.4 0.10 0.79 0.64 90 1019.7
20260508210906 11 119 3.2 6.4 0.10 0.79 0.64 89 1019.4
20260508210606 10 122 3.2 6.4 0.18 0.79 0.64 90 1019.5
20260508210007 10 143 3.2 11.3 0.23 0.79 0.64 90 1019.4
20260508205706 10 142 4.8 17.7 0.23 0.79 0.64 90 1019.2
20260508205406 10 148 4.8 17.7 0.23 0.79 0.64 91 1019.5
20260508205107 10 148 8.0 17.7 0.23 0.79 0.64 91 1019.3
20260508204807 10 149 4.8 14.5 0.23 0.79 0.64 92 1019.0
20260508204507 10 146 8.0 14.5 0.23 0.79 0.64 92 1019.0
20260508204206 10 152 8.0 14.5 0.23 0.79 0.64 93 1018.6
20260508203907 10 156 8.0 17.7 0.23 0.79 0.64 93 1018.7
20260508203306 10 155 11.3 17.7 0.23 0.76 0.61 94 1018.6
20260508203006 10 147 11.3 17.7 0.23 0.76 0.61 95 1018.5
20260508202707 10 144 6.4 14.5 0.28 0.76 0.61 96 1018.2
20260508202407 10 138 6.4 14.5 0.28 0.76 0.61 96 1018.1
20260508201806 10 151 6.4 12.9 0.23 0.71 0.56 97 1018.1
20260508201506 10 161 6.4 12.9 0.23 0.71 0.56 95 1017.9
20260508201207 10 161 6.4 14.5 0.20 0.69 0.53 95 1018.1
20260508200906 10 154 6.4 17.7 0.23 0.69 0.53 95 1017.9
20260508200606 10 153 6.4 20.9 0.15 0.61 0.46 94 1017.8
20260508200306 10 151 9.7 20.9 0.13 0.56 0.43 92 1017.6
20260508195706 10 143 11.3 20.9 0.13 0.53 0.38 91 1017.2
20260508195106 10 123 11.3 17.7 0.15 0.53 0.38 90 1017.0
20260508194806 10 114 9.7 17.7 0.15 0.53 0.38 90 1017.2
20260508193907 10 118 11.3 17.7 0.15 0.53 0.38 90 1016.8
20260508193606 10 127 9.7 17.7 0.18 0.53 0.38 90 1017.0
20260508193306 10 130 9.7 14.5 0.15 0.51 0.36 90 1016.9
20260508193007 10 128 6.4 14.5 0.13 0.48 0.33 89 1016.7
20260508192706 10 126 3.2 17.7 0.13 0.48 0.33 90 1016.4
20260508192407 10 116 9.7 17.7 0.13 0.48 0.33 90 1016.4
20260508192106 10 113 6.4 17.7 0.13 0.48 0.33 90 1016.4
20260508191806 10 111 11.3 17.7 0.13 0.48 0.33 90 1016.5
20260508191507 10 111 4.8 14.5 0.13 0.48 0.33 89 1016.3
20260508190907 10 123 6.4 14.5 0.10 0.46 0.30 89 1016.1
20260508190606 10 122 6.4 14.5 0.13 0.46 0.30 88 1016.0
20260508190306 10 119 8.0 14.5 0.13 0.46 0.30 89 1016.2
20260508190006 10 120 4.8 11.3 0.15 0.46 0.30 87 1016.2
20260508185706 10 121 6.4 17.7 0.18 0.43 0.28 86 1016.0
20260508185408 10 123 6.4 17.7 0.18 0.43 0.28 87 1015.8
20260508184506 11 115 3.2 14.5 0.18 0.38 0.23 86 1015.8
20260508184207 11 117 4.8 14.5 0.20 0.38 0.23 84 1015.6
20260508183907 11 119 6.4 14.5 0.23 0.38 0.23 84 1015.1
20260508183607 11 113 3.2 14.5 0.20 0.36 0.20 86 1015.4
20260508183306 10 110 8.0 11.3 0.20 0.36 0.20 83 1015.2
20260508183006 10 108 4.8 11.3 0.20 0.36 0.20 86 1015.4
20260508182706 10 101 4.8 9.7 0.20 0.36 0.20 87 1015.2
20260508182407 10 107 4.8 9.7 0.20 0.36 0.20 87 1015.4
20260508182108 10 113 4.8 9.7 0.20 0.36 0.20 87 1015.2
20260508181807 10 110 1.6 6.4 0.20 0.36 0.20 87 1015.0
20260508181506 10 107 3.2 6.4 0.20 0.36 0.20 87 1015.2
20260508181207 10 116 3.2 6.4 0.20 0.36 0.20 87 1014.9
20260508180606 11 127 4.8 6.4 0.18 0.33 0.18 86 1015.2
20260508180306 11 131 3.2 6.4 0.18 0.33 0.18 85 1015.2
20260508180006 11 138 3.2 6.4 0.13 0.28 0.13 85 1015.1
20260508175406 11 116 1.6 6.4 0.10 0.23 0.10 83 1014.9
20260508175107 11 116 3.2 9.7 0.10 0.23 0.10 80 1015.1
20260508174807 11 113 3.2 14.5 0.10 0.23 0.10 82 1014.9
20260508173907 12 118 6.4 25.7 0.00 0.15 0.00 73 1014.4
20260508173605 12 123 9.7 25.7 0.00 0.15 0.00 71 1014.2
20260508173306 13 116 8.0 25.7 0.00 0.15 0.00 70 1014.2
20260508173006 13 115 12.9 17.7 0.00 0.15 0.00 64 1014.1
20260508172706 13 115 6.4 14.5 0.00 0.15 0.00 63 1013.7
20260508172407 13 115 6.4 17.7 0.00 0.15 0.00 63 1014.2
20260508171807 13 131 6.4 20.9 0.00 0.15 0.00 61 1013.9
20260508171507 13 131 6.4 20.9 0.00 0.15 0.00 62 1014.0
20260508171207 13 120 9.7 20.9 0.00 0.15 0.00 62 1014.0
20260508170906 12 121 11.3 20.9 0.00 0.15 0.00 63 1014.2
20260508170606 13 134 6.4 20.9 0.00 0.15 0.00 64 1013.9
20260508170306 13 141 6.4 20.9 0.00 0.15 0.00 61 1013.9
20260508170007 13 146 12.9 17.7 0.00 0.15 0.00 61 1013.8
20260508165705 13 123 6.4 11.3 0.00 0.15 0.00 62 1013.7
20260508165106 13 101 4.8 12.9 0.00 0.15 0.00 60 1013.6
20260508164806 13 104 4.8 12.9 0.00 0.15 0.00 59 1013.6
20260508164206 13 108 6.4 12.9 0.00 0.15 0.00 61 1013.4
20260508163906 13 114 8.0 12.9 0.00 0.15 0.00 59 1013.7
20260508163606 13 113 4.8 11.3 0.00 0.15 0.00 60 1013.5
20260508163306 13 117 3.2 9.7 0.00 0.15 0.00 60 1013.5
20260508162706 13 118 6.4 11.3 0.00 0.15 0.00 60 1013.5
20260508162406 13 109 3.2 14.5 0.00 0.15 0.00 59 1013.2
20260508162107 13 116 4.8 14.5 0.00 0.15 0.00 58 1013.3
20260508161806 13 113 4.8 14.5 0.00 0.15 0.00 59 1013.4
20260508161507 13 109 9.7 14.5 0.00 0.15 0.00 57 1013.7
20260508161207 13 100 8.0 14.5 0.00 0.15 0.00 59 1013.7
20260508160906 12 99 6.4 11.3 0.00 0.15 0.00 64 1013.9
20260508160606 12 97 6.4 9.7 0.00 0.15 0.00 66 1013.9
20260508160306 12 103 4.8 11.3 0.00 0.15 0.00 64 1013.7
20260508160008 12 94 3.2 11.3 0.00 0.15 0.00 66 1014.0
20260508155706 12 103 4.8 12.9 0.00 0.15 0.00 65 1014.0
20260508155406 12 109 6.4 12.9 0.00 0.15 0.00 64 1013.8
20260508155106 12 110 6.4 12.9 0.00 0.15 0.00 62 1013.9
20260508154506 13 106 6.4 17.7 0.00 0.15 0.00 59 1013.8
20260508154206 12 108 4.8 17.7 0.00 0.15 0.00 60 1013.5
20260508153906 12 99 8.0 17.7 0.00 0.15 0.00 62 1013.6
20260508153606 12 96 3.2 17.7 0.00 0.15 0.00 64 1013.7
20260508153306 12 89 6.4 17.7 0.00 0.15 0.00 66 1013.8
20260508153006 12 83 11.3 17.7 0.00 0.15 0.00 64 1013.6
20260508152706 12 79 8.0 17.7 0.00 0.15 0.00 62 1013.6
20260508152406 12 89 9.7 17.7 0.00 0.15 0.00 63 1013.9
20260508152106 11 84 9.7 14.5 0.00 0.15 0.00 65 1013.7
20260508151806 11 92 6.4 14.5 0.00 0.15 0.00 67 1014.0
20260508151506 12 90 9.7 17.7 0.00 0.15 0.00 65 1014.2
20260508151207 12 91 9.7 17.7 0.00 0.15 0.00 64 1014.0
20260508150906 12 90 9.7 17.7 0.00 0.15 0.00 64 1014.0
20260508150606 12 94 4.8 17.7 0.00 0.15 0.00 65 1014.0
20260508150306 12 95 6.4 17.7 0.00 0.15 0.00 63 1014.0
20260508150011 12 102 6.4 17.7 0.00 0.15 0.00 60 1014.4
20260508145408 12 84 3.2 17.7 0.00 0.15 0.15 59 1014.3
20260508145106 12 80 6.4 17.7 0.00 0.15 0.15 58 1014.4
20260508144806 12 83 3.2 17.7 0.00 0.15 0.15 63 1014.3
20260508144506 12 92 9.7 14.5 0.00 0.15 0.15 62 1014.4
20260508143907 12 89 4.8 11.3 0.00 0.15 0.15 62 1014.5
20260508143006 12 73 4.8 12.9 0.00 0.15 0.15 65 1014.2
20260508142707 12 73 8.0 12.9 0.00 0.15 0.15 63 1014.5
20260508142406 12 76 6.4 12.9 0.00 0.15 0.15 62 1014.4
20260508142106 12 83 3.2 12.9 0.00 0.15 0.15 61 1014.5
20260508141806 12 87 6.4 12.9 0.00 0.15 0.15 62 1014.4
20260508141506 12 92 6.4 12.9 0.00 0.15 0.15 61 1014.0
20260508140906 12 86 3.2 17.7 0.00 0.15 0.15 65 1014.4
20260508140606 12 85 3.2 17.7 0.00 0.15 0.15 66 1014.2
20260508140307 12 83 6.4 17.7 0.00 0.15 0.15 65 1014.1
20260508140007 12 90 11.3 17.7 0.00 0.15 0.15 65 1013.9
20260508135706 12 92 6.4 11.3 0.00 0.15 0.15 61 1014.1
20260508135406 12 97 4.8 11.3 0.00 0.15 0.15 66 1014.1
20260508135106 12 100 3.2 12.9 0.00 0.15 0.15 66 1014.0
20260508134806 12 92 8.0 14.5 0.00 0.15 0.15 64 1014.1
20260508134506 12 99 6.4 14.5 0.00 0.15 0.15 63 1013.9
20260508134208 12 90 6.4 14.5 0.00 0.15 0.15 63 1014.0
20260508133906 12 90 6.4 14.5 0.00 0.15 0.15 65 1014.0
20260508133606 13 92 6.4 14.5 0.00 0.15 0.15 65 1013.9
20260508133006 13 97 4.8 12.9 0.00 0.15 0.15 64 1014.3
20260508132706 13 93 9.7 14.5 0.00 0.15 0.15 64 1014.0
20260508132406 12 91 4.8 14.5 0.00 0.15 0.15 64 1014.1
20260508132106 12 98 4.8 14.5 0.00 0.15 0.15 72 1014.0
20260508131806 13 108 6.4 11.3 0.00 0.15 0.15 66 1013.9
20260508131206 12 116 6.4 11.3 0.00 0.15 0.15 67 1014.1
20260508130906 12 114 3.2 9.7 0.00 0.15 0.15 71 1014.3
20260508130606 12 108 3.2 9.7 0.00 0.15 0.15 69 1014.2
20260508130008 12 113 3.2 9.7 0.00 0.15 0.15 74 1014.0
20260508125706 12 112 3.2 9.7 0.00 0.15 0.15 73 1014.3
20260508125406 12 106 3.2 9.7 0.00 0.15 0.15 73 1014.5
20260508125106 12 98 1.6 6.4 0.00 0.15 0.15 77 1014.2
20260508124805 13 86 1.6 6.4 0.00 0.15 0.15 76 1014.2
20260508124206 13 86 3.2 6.4 0.00 0.15 0.15 73 1014.2
20260508123906 13 93 3.2 6.4 0.00 0.15 0.15 72 1013.9
20260508123606 12 90 3.2 6.4 0.00 0.15 0.15 74 1014.1
20260508123306 13 79 3.2 6.4 0.00 0.15 0.15 75 1014.2
20260508123006 13 80 3.2 6.4 0.00 0.15 0.15 75 1014.0
20260508122705 13 90 4.8 6.4 0.00 0.15 0.15 73 1014.1
20260508122105 13 123 3.2 6.4 0.00 0.15 0.15 70 1013.8
20260508121206 13 138 3.2 17.7 0.00 0.15 0.15 75 1014.0
20260508120906 13 143 3.2 17.7 0.00 0.15 0.15 74 1013.9
20260508120605 13 146 6.4 17.7 0.00 0.15 0.15 71 1014.2
20260508120306 13 152 6.4 17.7 0.00 0.15 0.15 72 1014.1
20260508120006 13 161 11.3 17.7 0.00 0.15 0.15 71 1014.0
20260508115707 13 159 9.7 17.7 0.00 0.15 0.15 73 1013.9
20260508115406 13 160 9.7 24.1 0.00 0.15 0.15 72 1013.8
20260508114807 13 163 9.7 24.1 0.00 0.15 0.15 74 1013.6
20260508114507 13 160 12.9 24.1 0.00 0.15 0.15 73 1013.8
20260508114206 13 157 17.7 22.5 0.00 0.15 0.15 72 1013.7
20260508113907 13 153 14.5 22.5 0.00 0.15 0.15 72 1013.3
20260508113607 13 153 11.3 17.7 0.00 0.15 0.15 74 1013.5
20260508113307 13 147 8.0 17.7 0.00 0.15 0.15 76 1013.2
20260508112705 14 145 8.0 17.7 0.00 0.15 0.15 76 1013.5
20260508112406 14 149 9.7 17.7 0.00 0.15 0.15 75 1013.8
20260508112106 14 150 9.7 17.7 0.00 0.15 0.15 75 1013.5
20260508111806 14 149 8.0 17.7 0.00 0.15 0.15 75 1013.5
20260508111206 14 143 11.3 20.9 0.00 0.15 0.15 76 1013.5
20260508110906 14 147 12.9 20.9 0.00 0.15 0.15 75 1013.2
20260508110605 14 148 12.9 20.9 0.00 0.15 0.15 76 1013.4
20260508110306 14 158 11.3 20.9 0.00 0.15 0.15 77 1013.2
20260508110006 14 167 9.7 20.9 0.00 0.15 0.15 77 1013.1
20260508105706 14 165 11.3 20.9 0.00 0.15 0.15 80 1013.3
20260508105406 14 157 11.3 24.1 0.00 0.15 0.15 79 1013.1
20260508105105 14 154 11.3 24.1 0.00 0.15 0.15 79 1012.8
20260508104806 14 154 11.3 24.1 0.00 0.15 0.15 79 1013.0
20260508104506 14 163 11.3 24.1 0.00 0.15 0.15 78 1012.8
20260508104206 14 159 9.7 17.7 0.00 0.15 0.15 79 1012.7
20260508103906 14 157 6.4 14.5 0.00 0.15 0.15 80 1012.7
20260508103607 14 147 8.0 17.7 0.00 0.15 0.15 79 1012.7
20260508103306 14 141 6.4 17.7 0.00 0.15 0.15 80 1012.5
20260508103007 14 127 8.0 17.7 0.00 0.15 0.15 80 1012.7
20260508102706 14 122 8.0 14.5 0.00 0.15 0.15 81 1012.5
20260508102405 14 135 4.8 11.3 0.00 0.15 0.15 82 1012.5
20260508102106 14 141 8.0 11.3 0.00 0.15 0.15 81 1012.3
20260508101806 14 161 4.8 12.9 0.00 0.15 0.15 81 1012.3
20260508101506 14 161 4.8 20.9 0.00 0.15 0.15 81 1012.1
20260508100906 14 138 8.0 20.9 0.03 0.15 0.15 80 1012.1
20260508100606 14 128 9.7 20.9 0.03 0.15 0.15 80 1012.0
20260508100307 14 134 6.4 14.5 0.03 0.15 0.15 82 1012.1
20260508100006 14 141 6.4 14.5 0.03 0.15 0.15 81 1011.7
20260508095706 14 140 11.3 14.5 0.03 0.15 0.15 82 1011.6
20260508095406 14 138 11.3 17.7 0.03 0.15 0.15 82 1011.6
20260508095106 14 136 9.7 17.7 0.03 0.15 0.15 82 1011.7
20260508094806 14 146 6.4 20.9 0.03 0.15 0.15 83 1011.8
20260508094207 14 142 8.0 20.9 0.03 0.15 0.15 84 1011.7
20260508093906 14 150 8.0 20.9 0.03 0.15 0.15 85 1011.8
20260508093606 14 157 8.0 14.5 0.03 0.15 0.15 86 1011.9
20260508093306 14 166 6.4 17.7 0.03 0.15 0.15 88 1011.6
20260508093006 14 166 6.4 17.7 0.03 0.15 0.15 88 1011.7
20260508092708 14 168 6.4 17.7 0.03 0.15 0.15 88 1011.5
20260508092406 14 165 8.0 17.7 0.03 0.15 0.15 89 1011.6
20260508092106 14 162 9.7 17.7 0.03 0.15 0.15 89 1011.4
20260508091506 14 152 8.0 20.9 0.03 0.15 0.15 88 1011.3
20260508091206 14 167 12.9 20.9 0.03 0.15 0.15 85 1011.5
20260508090906 14 173 14.5 24.1 0.00 0.13 0.13 84 1011.2
20260508090606 15 179 12.9 24.1 0.00 0.13 0.13 87 1011.3
20260508090305 15 205 11.3 25.7 0.00 0.13 0.13 87 1011.0
20260508090006 15 182 6.4 27.4 0.00 0.13 0.13 86 1011.1
20260508085406 15 173 8.0 27.4 0.00 0.13 0.13 82 1010.6
20260508085106 16 168 16.1 27.4 0.00 0.13 0.13 80 1010.5
20260508084806 16 167 14.5 20.9 0.00 0.13 0.13 79 1010.5
20260508084506 16 165 11.3 17.7 0.00 0.13 0.13 80 1010.4
20260508084206 16 160 6.4 17.7 0.00 0.13 0.13 81 1010.2
20260508083906 16 164 9.7 17.7 0.00 0.13 0.13 81 1010.2
20260508083606 16 164 6.4 12.9 0.00 0.13 0.13 82 1010.3
20260508083307 16 157 6.4 12.9 0.00 0.13 0.13 82 1010.4
20260508083006 16 150 4.8 12.9 0.00 0.13 0.13 83 1010.0
20260508082706 15 157 4.8 11.3 0.00 0.13 0.13 85 1009.7
20260508082406 15 171 6.4 17.7 0.00 0.13 0.13 85 1010.0
20260508082106 15 177 4.8 17.7 0.00 0.13 0.13 86 1009.8
20260508081805 15 170 8.0 17.7 0.00 0.13 0.13 86 1009.9
20260508081505 15 166 9.7 20.9 0.00 0.13 0.13 85 1009.6
20260508081206 15 155 11.3 20.9 0.00 0.13 0.13 85 1009.8
20260508080906 16 152 6.4 20.9 0.00 0.13 0.13 85 1009.6
20260508080606 16 155 12.9 20.9 0.00 0.13 0.13 83 1009.7
20260508080306 16 157 11.3 20.9 0.00 0.13 0.13 83 1009.5
20260508080006 16 155 11.3 20.9 0.00 0.13 0.13 84 1009.6
20260508075706 16 151 6.4 20.9 0.00 0.13 0.13 83 1009.7
20260508075406 16 149 12.9 20.9 0.00 0.13 0.13 82 1009.4
20260508075106 16 146 9.7 20.9 0.00 0.13 0.13 83 1009.4
20260508074805 16 143 12.9 20.9 0.00 0.13 0.13 83 1009.2
20260508074506 16 149 12.9 17.7 0.00 0.13 0.13 83 1009.0
20260508074206 16 167 9.7 17.7 0.00 0.13 0.13 85 1009.2
20260508073906 16 176 9.7 24.1 0.00 0.13 0.13 86 1008.7
20260508073606 16 173 11.3 24.1 0.00 0.13 0.13 86 1008.9
20260508073306 16 172 8.0 24.1 0.00 0.13 0.13 86 1008.7
20260508073006 16 176 9.7 22.5 0.00 0.13 0.13 85 1008.9
20260508072706 16 176 9.7 22.5 0.00 0.13 0.13 86 1008.8
20260508072407 16 177 6.4 22.5 0.00 0.13 0.13 85 1008.8
20260508072105 16 181 14.5 22.5 0.00 0.13 0.13 84 1008.9
20260508071806 16 185 9.7 24.1 0.00 0.13 0.13 85 1008.6
20260508071506 16 182 9.7 24.1 0.00 0.13 0.13 84 1008.6
20260508071206 16 173 12.9 24.1 0.00 0.13 0.13 83 1008.3
20260508070905 16 167 12.9 27.4 0.00 0.13 0.13 83 1008.5
20260508070306 16 163 12.9 27.4 0.00 0.13 0.13 82 1008.4
20260508070006 16 161 12.9 27.4 0.00 0.13 0.13 81 1008.3
20260508065705 17 187 14.5 27.4 0.00 0.13 0.13 82 1008.5
20260508065405 17 176 11.3 33.8 0.00 0.13 0.13 82 1008.4
20260508065106 17 173 17.7 33.8 0.00 0.13 0.13 81 1008.2
20260508064806 17 168 16.1 33.8 0.00 0.13 0.13 81 1008.3
20260508064506 17 171 20.9 33.8 0.00 0.13 0.13 82 1008.4
20260508064207 17 183 17.7 29.0 0.00 0.13 0.13 82 1008.4
20260508063906 17 182 20.9 29.0 0.00 0.13 0.13 82 1008.5
20260508063606 17 181 12.9 29.0 0.00 0.13 0.13 83 1008.3
20260508063306 18 174 14.5 29.0 0.00 0.13 0.13 82 1008.2
20260508063007 18 162 22.5 29.0 0.00 0.13 0.13 80 1008.2
20260508062706 18 159 14.5 27.4 0.00 0.13 0.13 80 1007.8
20260508062406 18 163 16.1 27.4 0.00 0.13 0.13 80 1007.8
20260508061807 19 212 14.5 25.7 0.00 0.13 0.13 79 1007.8
20260508061506 19 203 8.0 25.7 0.00 0.13 0.13 79 1007.9
20260508061206 19 176 9.7 25.7 0.00 0.13 0.13 78 1007.7
20260508060906 19 164 11.3 25.7 0.00 0.13 0.13 78 1007.8
20260508060606 19 173 8.0 27.4 0.00 0.13 0.13 77 1007.7
20260508060307 19 173 12.9 27.4 0.00 0.13 0.13 75 1007.5
20260508055706 19 150 16.1 29.0 0.00 0.13 0.13 74 1007.4
20260508055406 19 149 12.9 29.0 0.00 0.13 0.13 75 1007.7
20260508054805 19 147 22.5 29.0 0.00 0.13 0.13 74 1007.7
20260508054506 20 144 12.9 22.5 0.00 0.13 0.13 74 1007.6
20260508054205 20 142 14.5 20.9 0.00 0.13 0.13 71 1007.9
20260508053905 20 139 12.9 24.1 0.00 0.13 0.13 71 1007.7
20260508053606 20 143 12.9 24.1 0.00 0.13 0.13 70 1007.9
20260508053306 20 148 12.9 24.1 0.00 0.13 0.13 70 1007.3
20260508053007 20 149 11.3 24.1 0.00 0.13 0.13 71 1007.6
20260508052705 20 160 8.0 25.7 0.00 0.13 0.13 71 1007.4
20260508052406 20 161 12.9 27.4 0.00 0.13 0.13 70 1007.3
20260508052106 20 175 12.9 27.4 0.00 0.13 0.13 70 1007.7
20260508051805 20 173 17.7 27.4 0.00 0.13 0.13 68 1007.6
20260508051506 20 166 14.5 27.4 0.00 0.13 0.13 69 1007.5
20260508050905 20 159 17.7 25.7 0.00 0.13 0.13 69 1007.5
20260508050605 20 153 12.9 25.7 0.00 0.13 0.13 70 1007.5
20260508050006 20 156 12.9 22.5 0.00 0.13 0.13 71 1007.5
20260508045706 20 166 12.9 22.5 0.00 0.13 0.13 72 1007.4
20260508045106 20 171 14.5 22.5 0.00 0.13 0.13 71 1007.7
20260508044806 20 163 11.3 22.5 0.00 0.13 0.13 72 1007.6
20260508044506 20 155 11.3 22.5 0.00 0.13 0.13 73 1007.6
20260508044206 20 149 12.9 22.5 0.00 0.13 0.13 74 1007.9
20260508043606 20 143 12.9 17.7 0.00 0.13 0.13 76 1007.9
20260508043306 19 131 4.8 11.3 0.00 0.13 0.13 78 1008.1
20260508043006 20 123 3.2 11.3 0.00 0.13 0.13 81 1008.1
20260508042405 20 98 4.8 9.7 0.00 0.13 0.13 82 1008.2
20260508042105 20 323 3.2 6.4 0.00 0.13 0.13 80 1008.4
20260508041806 20 319 3.2 6.4 0.00 0.13 0.13 79 1008.3
20260508041506 20 327 3.2 6.4 0.00 0.13 0.13 80 1008.3
20260508041206 20 342 4.8 6.4 0.00 0.13 0.13 82 1008.1
20260508040906 20 53 1.6 3.2 0.00 0.13 0.13 82 1008.1
20260508040606 20 74 0.0 3.2 0.00 0.13 0.13 82 1008.3
20260508040306 20 49 1.6 3.2 0.00 0.13 0.13 80 1008.0
20260508035705 20 79 0.0 6.4 0.00 0.13 0.13 80 1008.1
20260508035405 20 95 3.2 6.4 0.00 0.13 0.13 82 1008.1
20260508035106 20 104 3.2 9.7 0.00 0.13 0.13 82 1008.3
20260508034806 20 297 1.6 9.7 0.00 0.13 0.13 81 1008.4
20260508034506 20 302 3.2 9.7 0.00 0.13 0.13 80 1008.2
20260508034207 20 311 1.6 6.4 0.00 0.13 0.13 82 1008.2
20260508033905 20 306 3.2 6.4 0.00 0.13 0.13 82 1008.5
20260508033605 20 315 1.6 6.4 0.00 0.13 0.13 83 1008.4
20260508033306 20 319 4.8 6.4 0.00 0.13 0.13 82 1008.3
20260508033006 20 104 1.6 6.4 0.00 0.13 0.13 80 1008.6
20260508032706 20 67 1.6 6.4 0.00 0.13 0.13 83 1008.7
20260508032406 20 127 1.6 6.4 0.00 0.13 0.13 83 1008.6
20260508032105 20 119 4.8 6.4 0.00 0.13 0.13 83 1008.6
20260508031806 19 143 3.2 6.4 0.00 0.13 0.13 82 1008.5
20260508031507 19 54 3.2 6.4 0.00 0.13 0.13 83 1008.7
20260508031206 19 321 3.2 6.4 0.00 0.13 0.13 87 1008.9
20260508030906 19 332 1.6 6.4 0.00 0.13 0.13 87 1008.8
20260508030007 19 16 3.2 6.4 0.10 0.13 0.13 87 1008.9
20260508025705 19 37 1.6 6.4 0.10 0.13 0.13 87 1009.1
20260508025405 19 57 3.2 6.4 0.13 0.13 0.13 87 1009.1
20260508025106 19 54 3.2 6.4 0.13 0.13 0.13 87 1009.1
20260508024807 19 57 1.6 6.4 0.13 0.13 0.13 87 1009.2
20260508024505 18 74 3.2 6.4 0.13 0.13 0.13 88 1009.0
20260508024206 18 75 3.2 3.2 0.13 0.13 0.13 90 1008.9
20260508023906 18 78 0.0 6.4 0.13 0.13 0.13 90 1009.3
20260508023606 18 80 3.2 6.4 0.13 0.13 0.13 90 1009.2
20260508023006 18 98 3.2 6.4 0.13 0.13 0.13 90 1009.3
20260508022706 18 100 3.2 6.4 0.13 0.13 0.13 90 1009.2
20260508022406 18 107 3.2 9.7 0.13 0.13 0.13 90 1009.3
20260508022106 18 112 3.2 12.9 0.13 0.13 0.13 90 1009.4
20260508021807 18 129 4.8 14.5 0.13 0.13 0.13 89 1009.4
20260508021506 18 141 6.4 14.5 0.13 0.13 0.13 90 1009.3
20260508021207 18 147 6.4 14.5 0.13 0.13 0.13 89 1009.1
20260508020905 17 151 6.4 17.7 0.13 0.13 0.13 90 1009.2
20260508020607 17 156 8.0 17.7 0.13 0.13 0.13 90 1009.4
20260508020006 18 158 12.9 27.4 0.03 0.03 0.05 87 1009.4
20260508015706 19 156 9.7 27.4 0.03 0.03 0.03 84 1009.5
20260508015406 19 146 16.1 27.4 0.00 0.00 0.00 80 1009.2
20260508014806 20 148 9.7 17.7 0.00 0.00 0.00 77 1009.4
20260508014506 20 158 8.0 17.7 0.00 0.00 0.00 76 1009.2
20260508014205 20 155 6.4 20.9 0.00 0.00 0.00 76 1009.2
20260508013907 20 147 8.0 20.9 0.00 0.00 0.00 76 1009.2